Weather in Sirotinskaya

Russia / Volgograd Oblast     49°15′27″N   43°40′24″E
temp.,
°C
wind,
m/s
gust,
m/s
humid.,
%
clouds,
%
prec.,
mm/h
press.,
hPa
HPBL,
m
3 august, tue
tue300:00+28sw223490 0.0 101027
03:00+26s333725 0.0 101126
06:00+27s22375 0.0 101023
09:00+34s332162 0.0 1011589
12:00+37sw471883 0.0 10102860
15:00+37sw671697 0.0 10093560
18:00+31wnw610308 0.0 1009282
21:00+27n223695 0.0 101024
4 august, wed
wed400:00+23nw61072100 0.0 1012287
03:00+22nne4971100 0.1 1012278
06:00+22nw237687 0.3 1012138
09:00+24nw5664100 0.3 1013377
12:00+31nw443796 0.0 10132136
15:00+32wnw563247 0.0 10122812
18:00+30nw553215 0.0 10131785
21:00+24nw494034 0.0 1014175
5 august, thu
thu500:00+22n41064100 0.0 1015316
03:00+21nnw3371100 0.0 101658
06:00+20nnw367017 0.0 1016197
09:00+27nne56395 0.0 10161320
12:00+30nne54260 0.0 10152347
15:00+31nne542332 0.0 10152575
18:00+30nne5425100 0.0 10142314
21:00+24ne41039100 0.0 1015199
6 august, fri
fri600:00+21ne384332 0.0 1015148
03:00+19ene33495 0.0 101536
06:00+20e28470 0.0 1015220
09:00+29ese56295 0.0 1015900
12:00+33ese44235 0.0 10132586
15:00+35ese45190 0.0 10123206
18:00+33ese66215 0.0 10111879
21:00+26e512295 0.0 1011215
7 august, sat
sat700:00+25ese51428100 0.0 1012317
03:00+24ese51328100 0.0 1012335
06:00+24ese41231100 0.0 1012362
09:00+29ese6922100 0.0 1012635
12:00+34ese6717100 0.0 10112166
15:00+35ese7715100 0.0 10102658
18:00+33e6918100 0.0 1010668
21:00+27e4112595 0.0 1011183